ABS-6

Last updated on Sat Aug 15 2026 00:02:56 GMT+0000 (Coordinated Universal Time)

1 25924U 99053A 26226.54706293 -.00000135 00000+0 00000+0 0 9990 2 25924 0.0736 266.0455 0003403 218.7810 194.0757 1.00272106 98420
UTC large
Height (km)
Speed (km/s)
/
Latitude / Longitude
Inclination (degrees)
Orbital Period (minutes)
Azimuth
Elevation
Range (km)
Doppler Factor

Next 0 passes for location: London (51.5072 / 0.1276)

No passes found over London.
ABS-6